Tennant Creek Airport
YTNK : now visible

Airfield :











YOU CAN JOIN US ON...

 
LOGIN :

Register | Disclaimer

   EN    FR    IT 

 









Legend :    VFR   Marginal VFR   IFR   Intensive IFR   Very Intensive IFR
Visi :
Ceiling :
>= 8 km
>= 3000ft
5 to 8 km
1000 to 3000 ft
1500m to 5 km
500 to 1000 ft
800 to 1500m
200 to 500 ft
< 800m
< 200 ft
Symbols :   Thunderstorms  Fog  Heavy snow  Heavy precipitations  Wind > 20 kt






- Airport Elevation : 1236 ft
- IATA code : TCA


YTNK - Tennant Creek

CURRENT METAR :
  • 060200Z AUTO 11009KT 9999 // NCD 35/M04 Q1010

EXPIRED METARs :
  • 060100Z AUTO 09011KT 9999 // NCD 34/M05 Q1010
  • 060000Z AUTO 09012KT 9999 // NCD 32/M04 Q1010

TAF TAF YTNK
Valid from the 06 at 02:00 until the 06 at 14:00 UTC


060116Z 0602/0614 11010KT CAVOK
FM060500 15008KT CAVOK
FM061000 10005KT CAVOK
YBBB FIR / Oceania



MET'MAP, your aeronautical weather chart ! - Copyright ORBIFLY December 2007 - Disclaimer

ORBIFLY MET'MAP TEAM :

Programming & Development : Alexandra Zaïnal
Concept & original design : Baudouin d'Aumeries
Assistance for programming : Marc-Olivier Méhu
Technical & hardware support : Manuel Goepfert

Contact : metmap@orbifly.com




SOURCES & CREDITS :

   NOAA       Earth
Advisory